Location: Bruderhein
(53.8035°N, 112.9265°W)
Time: 03:14:48
(UTC+00:00)

KKS-1 - Pass Details

Date: 06 April 2023
Orbit: 633 x 644 km, 98.2° (Epoch: 31 May)

Event Time Altitude Azimuth Distance (km) Brightness Sun altitude
Rises 06:21:27 0° 15° (NNE) 2,945 ? -27.9°
Reaches altitude 10° 06:23:40 10° 16° (NNE) 2,032 ? -28.0°
Enters shadow 06:26:48 46° 19° (NNE) 858 ? -28.2°
